Regional Weather Roundup
Issued by NWS

Home | Current Version | Previous Version | Graphics & Text | Print | Product List | Glossary On
Versions: 1 2 3 4 5 6 7 8 9 10 11 12 13 14 15 16 17 18 19 20 21 22 23 24 25 26 27 28 29 30 31 32 33 34 35 36 37 38 39 40 41 42 43 44 45 46 47 48 49 50
000
ASUS43 KLMK 261610
RWRKY
KENTUCKY REGIONAL WEATHER ROUNDUP
NATIONAL WEATHER SERVICE LOUISVILLE KY
1200 PM EDT SAT JUL 26 2014

NOTE "FAIR" INDICATES FEW OR NO CLOUDS BELOW 12,000 FEET
WITH NO SIGNIFICANT WEATHER AND/OR OBSTRUCTIONS TO VISIBILITY.

KYZ001>023-026-027-061>063-070>075-261700-
WESTERN AND SOUTH CENTRAL KENTUCKY

CITY           SKY/WX    TMP DP  RH WIND       PRES   REMARKS
PADUCAH        SUNNY     85  73  67 SW10      29.97S HX  91
HENDERSON      SUNNY     82  72  69 SW8G18    29.94F
OWENSBORO      SUNNY     84  71  65 SW14      29.97F
HOPKINSVILLE   MOSUNNY   85  69  58 SW12G17   30.01F
BOWLING GREEN  MOSUNNY   85  64  49 SW13      30.03S
GLASGOW        SUNNY     83  63  51 SW12      30.03F
$$

KYZ024-025-028>034-038-045-046-053-261700-
NORTH CENTRAL KENTUCKY

CITY           SKY/WX    TMP DP  RH WIND       PRES   REMARKS
LOUISVILLE/SDF PTSUNNY   81  65  58 SW14G21   29.97F
LOUISVILLE/LOU PTSUNNY   80  65  59 SW9       29.98F
FORT KNOX      PTSUNNY   81  68  63 S9        29.99F
$$

KYZ035>037-039>044-047>052-055>060-089>105-261700-
NORTHEAST KENTUCKY

CITY           SKY/WX    TMP DP  RH WIND       PRES   REMARKS
LEXINGTON      CLOUDY    75  65  70 S12       30.02F
COVINGTON      CLOUDY    73  64  73 S14       29.98F
FRANKFORT      CLOUDY    74  64  71 S13       29.98F
$$

KYZ054-064>069-076>088-106>120-261700-
SOUTHEAST KENTUCKY

CITY           SKY/WX    TMP DP  RH WIND       PRES   REMARKS
JACKSON        CLOUDY    76  65  68 CALM      30.09R
LONDON         CLOUDY    77  63  61 S5        30.09R
SOMERSET       CLOUDY    77  63  61 CALM      30.08F
MIDDLESBORO    PTSUNNY   78  65  64 CALM      30.09S
MONTICELLO     PTSUNNY   79  66  64 SW6       30.08S
$$



USA.gov is the U.S. government's official web portal to all federal, state and local government web resources and services.